Location: Bakhuizen
(52.8696°N, 5.4575°E)
Time: 14:18:49
(UTC+00:00)

Nimbus 7 Rocket - Pass Details

Date: 28 September 2021
Orbit: 922 x 965 km, 99.4° (Epoch: 24 October)

Event Time Altitude Azimuth Distance (km) Brightness Sun altitude
Rises 02:30:25 0° 10° (N) 3,583 8.1 -26.9°
Reaches altitude 10° 02:35:28 10° 332° (NNW) 2,641 6.8 -26.3°
Maximum altitude 02:36:21 10° 323° (NW) 2,616 6.7 -26.2°
Drops below altitude 10° 02:37:14 10° 314° (NW) 2,642 6.7 -26.1°
Enters shadow 02:37:33 10° 311° (NW) 2,663 6.6 -26.0°
